Погода в Поварово

Россия / Московская область     56°04′23″N   37°03′43″E
темп.,
°C
ветер,
м/с
пор.,
м/с
влажн.,
%
обл.,
%
осадки,
мм/ч
давл.,
гПа
погр.,
м
16 мая, вс
вс1600:00+12ю39955 0.0 1009224
03:00+11ююз3109713 0.0 1010302
06:00+12ююз4109321 0.0 1011400
09:00+17юз58694 0.0 1012825
12:00+20юз575427 0.1 10121769
15:00+19ююз57685 1.3 10121215
18:00+18юз36755 1.1 1013814
21:00+14юз12900 1.2 101411
17 мая, пн
пн1700:00+13ююз1191100 0.0 101411
03:00+12ююв1192100 0.0 101510
06:00+13вюв239080 0.0 101585
09:00+18юв4668100 0.0 1016513
12:00+23вюв46517 0.0 10141186
15:00+25вюв58465 0.0 10121437
18:00+24вюв595820 0.0 10111077
21:00+19вюв41180100 0.7 1011371
18 мая, вт
вт1800:00+17вюв4128794 0.0 1010383
03:00+16вюв4138848 0.0 1010360
06:00+16вюв5138061 0.0 1009392
09:00+20юв61258100 0.0 1008598
12:00+24юв71447100 0.0 10081110
15:00+26юв7144498 0.0 10071772
18:00+23юв6115997 0.0 10071199
21:00+21юв6146598 0.1 1006831
19 мая, ср
ср1900:00+17юв4108857 0.6 1007288
03:00+15всв229676 0.6 100640
06:00+16вюв289376 0.0 1006332
09:00+20ююв3768100 0.0 1006644
12:00+24юв595471 0.0 10061441
15:00+24юв5125293 0.1 10052070
18:00+18ю4117997 0.6 1004507
21:00+15ююв4119027 1.2 1004397
20 мая, чт
чт2000:00+15вюв3994100 0.1 1003368
03:00+14ююв5109399 0.4 1003665
06:00+12ююв4995100 0.0 1004459
09:00+12ююв4890100 0.4 1004766
12:00+12ююв488980 0.8 1003756
15:00+14ю6884100 2.4 1003972
18:00+12ююз588680 0.3 1004678
21:00+9зюз61292100 0.5 1008969